Location: Andiroba
(19.8650°S, 43.9258°W)
Time: 00:31:45
(UTC+00:00)

USA 229 DEB - Pass Details

Date: 15 June 2024
Orbit: 889 x 1323 km, 63.4° (Epoch: 21 July)

Event Time Altitude Azimuth Distance (km) Brightness Sun altitude
Exits shadow 07:33:46 34° 184° (S) 1,467 4.2 -26.0°
Maximum altitude 07:36:21 62° 117° (ESE) 1,011 3.7 -25.5°
Drops below altitude 10° 07:42:07 10° 36° (NE) 2,544 6.4 -24.2°
Sets 07:44:37 0° 33° (NNE) 3,482 7.2 -23.6°
